HIMAWARI 3 AKM

基本信息
目录编号:
22266
目录名称:
HIMAWARI 3 AKM
国际标识:
1984-080E
轨道中心:
EARTH
物体状态:
在轨
发射日期:
1984-08-02 UTC
国别:
日本 (JP)
轨道信息
数据来源: 国际轨道数据
星历时间: 2026-07-13T20:44:11+0800
半长轴: 42309.581km
偏心率: 0.01383
轨道倾角: 9.466°
近地点辐角: 113.795°
升交点赤经: 315.995°
平近点角: 199.989°
近地点: 35346.302km
远地点: 36516.586km
周期: 1443.503分钟
每日圈数: 0.997573
详细信息
发射场:
TNSTA
轨道高度:
MEO
数据来源:
AOE Integration Group
参考系:
TEME
时间系统:
UTC
历元类型:
SGP4
2D轨道图
3D轨道图
轨道高度分析图
轨道倾角分析图
轨道综合分析图
查看轨道综合分析图